Tous vos exploits sur  Logo Planète Marathon le site 100% Marathon

Marathon de Louisiane (USA)              Donnez votre avis sur l'édition 2017

Le 15/01/2017 - 6ème édition - 949 arrivants.                                                       

Clmt. Temps Nom Prénom Club Organisme Catégorie
1 2:33:36 Schafbuch Ryan (USA) M2529 (+)
2 2:47:12 Bowling Kyle M3034 (+)
3 2:49:32 Basham Cort M4044 (+)
4 2:52:22 Maas Benjamin (USA) M2024 (+)
5 2:52:45 Owen Bradley M3539 (+)
6 2:54:26 Stevens Robert M3034 (+)
7 2:56:45 Straub Kyle M3539 (+)
8 2:57:52 Hollander Spencer M1619 (+)
9 2:59:51 Sullivan James M3034 (+)
10 3:00:36 Franco Froylan M4549 (+)
11 3:00:48 Kelly Paul M6064 (+)
12 3:01:10 Bourg Cory M3539 (+)
13 3:01:53 Stjarnstrom Dan M2529 (+)
14 3:02:43 Kadowaki Matthew M3539 (+)
15 3:05:38 O'reilly Matt M3034 (+)
16 3:05:44 Capps Josh M3539 (+)
17 3:05:46 Harris Brian M2024 (+)
18 3:06:29 Giles Michael M2529 (+)
19 3:06:44 Buck Glenn M2529 (+)
20 3:08:03 Fall Lawson M3539 (+)
21 3:08:11 Parker Lyle M5559 (+)
22 3:10:42 Valentine Megan F3539 (+)
23 3:11:31 Wilson Gary M3034 (+)
24 3:12:02 Theriot David M4044 (+)
25 3:12:06 Thacker Grace F3034 (+)
26 3:12:21 Davis Peter M2529 (+)
27 3:13:18 Hixon Robert M3034 (+)
28 3:13:46 Fucinaro Dan M4549 (+)
29 3:13:53 Bucci Daniel M3034 (+)
30 3:14:22 Anderson Charles M3539 (+)
31 3:14:37 Eddards Brandon M3539 (+)
32 3:16:06 Ybarzabal Lauren F2529 (+)
33 3:16:27 Knabe Adam M3539 (+)
34 3:17:28 Amirkhanian Yuri M4044 (+)
35 3:17:34 Peacock Jason M4044 (+)
36 3:18:03 Jones Christopher M4549 (+)
37 3:18:51 Wheat Jason M3539 (+)
38 3:18:51 Fisher Paige F2529 (+)
39 3:18:53 Dessauer Dave M6064 (+)
40 3:19:09 Idlett Matt M4044 (+)
41 3:20:01 Lam Leslie M4044 (+)
42 3:21:36 Giles Ron M4549 (+)
43 3:22:10 Guidry Beau M4044 (+)
44 3:22:22 Kelly Benjamin M2529 (+)
45 3:22:41 Carter Larkin M5054 (+)
46 3:23:24 Srinivasaiah Manjunath M3539 (+)
47 3:23:31 Porche Robert M4044 (+)
48 3:23:41 Koonce Stuart M4549 (+)
49 3:23:44 Williams Stephen Michael M2529 (+)
50 3:23:46 Rambacher Ethan M1619 (+)
51 3:23:48 Baird Carolyn F2529 (+)
52 3:24:02 Mcnabb Mike M3539 (+)
53 3:24:20 Livaudais Frank M4044 (+)
54 3:24:34 Slaven Kyle M3539 (+)
55 3:24:43 Amoroso Samuel M3539 (+)
56 3:25:07 Korduck James M5559 (+)
57 3:25:14 Guthikonda Bharat M4044 (+)
58 3:25:14 Mangin Chris M4044 (+)
59 3:25:41 Morein Dwayne M3539 (+)
60 3:25:45 Landry Chad M4549 (+)
61 3:25:56 Thomassie Jonathan M4044 (+)
62 3:26:11 Bennett Tommy M3539 (+)
63 3:27:13 Mayfield Eddie M4044 (+)
64 3:28:06 Garland Lane M4549 (+)
65 3:28:20 Wightman Ron M6569 (+)
66 3:28:26 Walls Christopher M3539 (+)
67 3:28:30 Johnson Houston M2529 (+)
68 3:29:00 Friedman Sam M5054 (+)
69 3:29:04 Griswold Mark M3539 (+)
70 3:29:14 Smith Dan M4044 (+)
71 3:29:37 Forkenbrock Jennifer F4044 (+)
72 3:29:47 Chaisson Justin M3034 (+)
73 3:30:06 Roussel Ross M5054 (+)
74 3:30:07 Gaillard Pamela F4549 (+)
75 3:30:52 Lichenstein Casey F3034 (+)
76 3:31:13 Sohaskey Mike M4549 (+)
77 3:31:25 Mason Kenneth M5054 (+)
78 3:31:45 Scott Patrick M4549 (+)
79 3:32:28 Melancon Ed M4549 (+)
80 3:32:51 Laborde Stacey M3539 (+)
81 3:32:58 Palacios Jorge M3539 (+)
82 3:33:05 Lecompte Kevin M4044 (+)
83 3:33:29 Carter Pam F5559 (+)
84 3:33:30 Mcnabb Stephanie F3034 (+)
85 3:33:55 Simmons Jill F3539 (+)
86 3:34:02 Klaus Kellan M2024 (+)
87 3:34:18 Brignac Jeffrey M1619 (+)
88 3:34:23 Mahaffie Thomas M2024 (+)
89 3:34:25 Mehall John M2024 (+)
90 3:34:27 Flores Remick Anna F2529 (+)
91 3:34:45 Thiel Michael M5559 (+)
92 3:34:48 Dolan Thomas M3034 (+)
93 3:34:50 Jungling Jeremy M4044 (+)
94 3:35:02 Flores Erick M2024 (+)
95 3:35:21 Rambacher Mark M4549 (+)
96 3:35:24 Stelpflug Leslie F4044 (+)
97 3:35:25 Shelton James M5054 (+)
98 3:35:37 Rudd Anne F3539 (+)
99 3:36:17 Boncimino Gregory M4549 (+)
100 3:36:22 Gordon Charles M4549 (+)
101 3:36:37 Wasson Dewain M5054 (+)
102 3:36:37 Davis Megan F3034 (+)
103 3:37:14 Martin Spencer M4549 (+)
104 3:37:17 Sidey Kim M5559 (+)
105 3:37:42 Sutton Drew M3539 (+)
106 3:38:15 Balfe Jim M6064 (+)
107 3:38:16 Faria Fil M5054 (+)
108 3:38:37 Leblanc Rene M4044 (+)
109 3:38:44 Scharr Michael M2529 (+)
110 3:38:51 Muller Brandon M3539 (+)
111 3:38:52 Faist Chris M3539 (+)
112 3:38:53 Bailey Jane F2529 (+)
113 3:38:54 Haile Andrew M4044 (+)
114 3:38:54 Daly Edward M5054 (+)
115 3:39:11 Salloum Georgia F4044 (+)
116 3:39:16 Chapman Andy M3539 (+)
117 3:39:44 Wilks Jessica F3539 (+)
118 3:39:48 Diemoz Lisa F4549 (+)
119 3:40:03 Fennell Jason M3034 (+)
120 3:40:09 Lawson Meghann F3034 (+)
121 3:40:14 Harris Morgan F2529 (+)
122 3:40:52 Kobetz Brooke F3034 (+)
123 3:41:03 Parks Jason M4044 (+)
124 3:41:03 Naron Summer F3539 (+)
125 3:41:14 Caswell Lance M5054 (+)
126 3:41:26 Domino Abby F3539 (+)
127 3:41:50 Leber Andrea F5054 (+)
128 3:42:14 Frain Brian M3539 (+)
129 3:42:16 Bass Daric M4549 (+)
130 3:42:18 Wilkinson Drew M4044 (+)
131 3:42:27 Mcmanus Cathy F4549 (+)
132 3:42:52 Blaise Daniel M5559 (+)
133 3:43:09 Hill Lisa F5054 (+)
134 3:43:11 Johnston Allen M5559 (+)
135 3:43:13 Smiley Jennifer F4044 (+)
136 3:43:51 Salzer William M3034 (+)
137 3:43:57 Capello Michael M4549 (+)
138 3:43:58 Hogeboom Patrick M4044 (+)
139 3:44:00 Higgins Walker M3034 (+)
140 3:44:08 Naquin Nicole F3539 (+)
141 3:44:26 Pillsbury Tim M3539 (+)
142 3:44:34 Ferrar Brandon M2529 (+)
143 3:44:55 Szot Michael M3034 (+)
144 3:45:16 Franco Alejandro M4044 (+)
145 3:45:38 Guidry Chris M3034 (+)
146 3:45:39 Veillon Dezza F3034 (+)
147 3:45:41 Boudreaux Donny M5054 (+)
148 3:45:43 Bohnenkamp Jennifer F4044 (+)
149 3:45:50 Jansen Joshua M3034 (+)
150 3:45:58 Juban Connor M1619 (+)
151 3:46:09 Davis Charles M5054 (+)
152 3:46:12 Mitchell Charles M4549 (+)
153 3:46:19 Beach Ken M6064 (+)
154 3:46:34 Aycock Julia F4549 (+)
155 3:46:45 Schantz-hagelberg Enid F6064 (+)
156 3:47:13 Elberson Christian M4549 (+)
157 3:47:32 Cheek Jason M3539 (+)
158 3:47:35 Prather Stephen M4549 (+)
159 3:48:06 Carlisle Kent M5054 (+)
160 3:48:09 Gatan Kevin M2529 (+)
161 3:48:11 Cornwell Katasha F3539 (+)
162 3:48:14 Fontenot Cody M3539 (+)
163 3:48:22 Schaffner Steve M5559 (+)
164 3:48:24 Smith Lee M4044 (+)
165 3:48:29 Morgan Mary F4549 (+)
166 3:48:37 Allen Spencer M4044 (+)
167 3:48:59 Bordelon Bubba M3539 (+)
168 3:49:02 Ho Sonia F4044 (+)
169 3:49:09 Langfitt Nathan M3034 (+)
170 3:49:13 Burke Kristin F3539 (+)
171 3:49:18 Musso Mark M4549 (+)
172 3:49:26 Rusch James M5559 (+)
173 3:49:38 Fritz Herbert M3539 (+)
174 3:49:43 Fanguy Christina F3539 (+)
175 3:49:53 Nielson Katherine F5054 (+)
176 3:50:00 Brooks Kaylee F2024 (+)
177 3:50:11 Kelly Robert M4044 (+)
178 3:50:18 Harmon Sharon F4549 (+)
179 3:50:34 Bruce David M5559 (+)
180 3:50:54 Chattley Anthony M3539 (+)
181 3:51:29 Beadle Meaghan F3034 (+)
182 3:51:33 Lasseigne Kensie F3539 (+)
183 3:51:58 Hudick Kyle M3034 (+)
184 3:52:02 Camarota Devon F2529 (+)
185 3:52:03 Kinsey Matthew M2024 (+)
186 3:52:09 Wnuk Kory M5054 (+)
187 3:52:11 Henschen Joel M3034 (+)
188 3:52:15 Johnson Shawn M5054 (+)
189 3:52:22 Curry Taylor F2529 (+)
190 3:52:23 Allen Jacob M3034 (+)
191 3:52:30 Lee Jeff M6064 (+)
192 3:52:39 Davis Rawn M3034 (+)
193 3:52:50 Spiegel Rebecca F2529 (+)
194 3:53:10 Batson Jim M5054 (+)
195 3:53:21 Rodgers Kelci F3034 (+)
196 3:53:21 Doring Patrick M3034 (+)
197 3:53:36 Anes Madeline F2529 (+)
198 3:53:40 Alvin Amy F2529 (+)
199 3:53:41 Foust Madison F2024 (+)
200 3:53:41 Penniman George M1619 (+)
201 3:53:50 Hammel Dawn F4549 (+)
202 3:53:58 Manuel Marcus M4044 (+)
203 3:54:05 Messerschmidt Michael M4549 (+)
204 3:54:11 Rampulla Charlie M4044 (+)
205 3:54:17 Campisi Michele F4549 (+)
206 3:54:35 Baker Ernest M4044 (+)
207 3:54:40 Valentino Lauren F3539 (+)
208 3:54:54 Mcmahon Neal M5054 (+)
209 3:55:03 Schelonka Greg M4549 (+)
210 3:55:04 Wilson Karen F4549 (+)
211 3:55:15 Hilliard Nopparat F4549 (+)
212 3:55:15 Barnett Stephen M4044 (+)
213 3:55:25 Melancon Paige M4044 (+)
214 3:55:31 Dupin Jessica F4044 (+)
215 3:55:34 Kostova Dilyana F3034 (+)
216 3:55:36 Kenelly Elizabeth F2529 (+)
217 3:55:41 Stauss Iii Ed M5559 (+)
218 3:55:47 Early Kirsten F4549 (+)
219 3:55:48 Compton Vernon M5559 (+)
220 3:55:53 Kennedy Connie F5054 (+)
221 3:55:57 Hill Joel M3539 (+)
222 3:55:57 Mayfield Allison F3539 (+)
223 3:55:58 Thiel Rita F5054 (+)
224 3:56:06 Dupuis Mary F4044 (+)
225 3:56:11 Huber Jennifer F3034 (+)
226 3:56:12 Cyr Carly F2024 (+)
227 3:56:12 Ralph Andy M4044 (+)
228 3:56:27 Perri Thomas M5559 (+)
229 3:56:40 Sagrera Anne F4044 (+)
230 3:56:42 Young Monte M3539 (+)
231 3:56:42 Olsen Taylor - (+)
232 3:56:42 Smith Kevin M4044 (+)
233 3:56:47 Dolan John M4549 (+)
234 3:57:07 Bergeron Philip M4549 (+)
235 3:57:16 Joki Michael M2529 (+)
236 3:57:18 Lithgoe Brandon M3539 (+)
237 3:57:21 Castille Jennifer F5559 (+)
238 3:57:24 Hammond Scott M5054 (+)
239 3:57:28 Morris Regina F5559 (+)
240 3:57:29 Dodds Jeremy M4549 (+)
241 3:57:39 Rhoden Brad M6064 (+)
242 3:57:44 Accardo Brandon M3539 (+)
243 3:57:45 Tassin Jason M3539 (+)
244 3:57:46 Aubrey Michael M3034 (+)
245 3:57:48 Cope Ryan M4044 (+)
246 3:57:58 Davenport Nelson M2529 (+)
247 3:57:59 Smith Jessica F4044 (+)
248 3:58:05 Rech Dave M5559 (+)
249 3:58:07 Modenbach Charles M6064 (+)
250 3:58:10 Abney David M3034 (+)
251 3:58:14 Durish Melissa F3034 (+)
252 3:58:18 Carmon Amanda F4549 (+)
253 3:58:28 Wells Kathy F5054 (+)
254 3:58:29 Robinson Marty M5054 (+)
255 3:58:36 Graham Adam M2529 (+)
256 3:58:38 Rajagopalan Ramesh M5054 (+)
257 3:58:44 Reiner Devonna F5054 (+)
258 3:58:44 Allen Alyssa F2529 (+)
259 3:58:51 Mcgovern Cindy F5054 (+)
260 3:58:52 Eberly Angie F3034 (+)
261 3:58:57 Huber Andrew M3034 (+)
262 3:58:59 Winnett Lily F2024 (+)
263 3:59:11 Sidloski Myron M6569 (+)
264 3:59:48 Smith Erin F3539 (+)
265 3:59:59 Galindo Roy M5559 (+)
266 3:59:59 Kent Devin M3539 (+)
267 4:00:12 Blum Elizabeth F3034 (+)
268 4:00:28 Lipps Gene M5559 (+)
269 4:00:39 Boneno Kevin M4044 (+)
270 4:00:45 Dugas Tony M4044 (+)
271 4:01:18 Leblanc Sid M5054 (+)
272 4:01:20 Paulsen Greg M5054 (+)
273 4:01:36 Mustian Jim M3034 (+)
274 4:01:41 Ruffin Stephen M5559 (+)
275 4:01:43 Boudreaux Pat F5559 (+)
276 4:01:51 Reif Molly F3539 (+)
277 4:01:54 Jackson Ryan M3539 (+)
278 4:02:19 Faulk Andrea F5054 (+)
279 4:02:32 Herbert Samantha F2024 (+)
280 4:02:36 Weilbacher Christin F3539 (+)
281 4:02:36 Ferachi Melissa F3539 (+)
282 4:02:50 Krzystowczyk Douglas M5054 (+)
283 4:03:04 Bailey Adam M3034 (+)
284 4:03:27 Boatman Anthony M5559 (+)
285 4:03:28 Greer Amanda F3034 (+)
286 4:03:28 Brown Kathy F3034 (+)
287 4:03:34 Guidry Douglas M2529 (+)
288 4:03:44 Currier Clay M3034 (+)
289 4:03:49 Mauterer Art M4549 (+)
290 4:04:01 Law Bob M4549 (+)
291 4:04:39 Marcello Karla F4044 (+)
292 4:04:44 Dornan Hester F3034 (+)
293 4:04:46 Alper Arnold M4549 (+)
294 4:05:07 Gossman Melissa F5559 (+)
295 4:05:15 Couvillion Keith M4549 (+)
296 4:05:16 San Miguel Jesse M5559 (+)
297 4:05:29 Thurmon Mark M5054 (+)
298 4:05:32 Valentine John M6569 (+)
299 4:05:35 Margherio Tony M3034 (+)
300 4:05:39 Jones Jessica F3034 (+)
301 4:05:46 Shores Ann Rene F2529 (+)
302 4:05:47 Liner Elizabeth F3034 (+)
303 4:06:18 Even Amanda F2529 (+)
304 4:06:28 Anaya Kristy F3539 (+)
305 4:06:29 Murugesan Manikandan M2529 (+)
306 4:06:32 Avila Juan M4044 (+)
307 4:06:48 Nieberding William M5054 (+)
308 4:07:27 Jennings John M3034 (+)
309 4:07:32 Rodrigue Hayden M2024 (+)
310 4:07:33 Gossman Mike M5559 (+)
311 4:07:39 Byrne Susan F5559 (+)
312 4:07:51 Crotty Jess F3034 (+)
313 4:07:56 Orihuela Tomas M5054 (+)
314 4:08:18 Higgins Jaimie F3539 (+)
315 4:08:22 Price Heather F4044 (+)
316 4:08:37 Herbison Kenneth M4549 (+)
317 4:08:55 Shadow Amber F3539 (+)
318 4:09:11 Capps Tracy F3539 (+)
319 4:09:26 Gaydos Jeff M4044 (+)
320 4:09:47 Poirrier Joey M3539 (+)
321 4:10:02 Bridwell Adam M2529 (+)
322 4:10:18 Laine Steven M4549 (+)
323 4:10:37 Moseley Amanda F2529 (+)
324 4:10:49 Hendricks Bob M4044 (+)
325 4:10:54 Young Rebecca F3539 (+)
326 4:11:07 Oliver Adam M3034 (+)
327 4:11:30 Clayton Jonathan M3539 (+)
328 4:11:53 Knight Kirkland M4549 (+)
329 4:11:59 Hart Logan M1619 (+)
330 4:12:02 Mitchell Maria F4549 (+)
331 4:12:32 Foch Bertrand M5559 (+)
332 4:12:33 Minardi Jason M2529 (+)
333 4:12:46 Rochon Kayla F3034 (+)
334 4:12:59 Pickering Tj M3034 (+)
335 4:13:19 Carter Kenyatta M3034 (+)
336 4:13:27 Pease Hannah F4044 (+)
337 4:13:37 Cross Bethany F3034 (+)
338 4:13:38 Leber David M2024 (+)
339 4:13:39 Horowitz Jeff M5054 (+)
340 4:13:40 Walters Paul M6064 (+)
341 4:13:42 Shuey Aimee F4549 (+)
342 4:13:44 Jursic Branko M5054 (+)
343 4:13:49 Schwartz Kimberly F2529 (+)
344 4:13:49 Cowley Dustin M3034 (+)
345 4:13:53 Fair Steven M4549 (+)
346 4:13:54 Macdougall Katie F3034 (+)
347 4:13:54 Singh Lydia F3034 (+)
348 4:14:18 Hill Deidre F3539 (+)
349 4:14:28 Stockton Rick M6064 (+)
350 4:14:32 Vincent Mark M4044 (+)
351 4:14:33 Ford Julie F4044 (+)
352 4:14:45 Norbut Ashley F3539 (+)
353 4:15:18 Croft Scott M2024 (+)
354 4:15:43 Stinson Douglas M3034 (+)
355 4:15:53 Sicard Lauren F2024 (+)
356 4:16:04 Sicard Troy M4549 (+)
357 4:16:27 Hartzell Richard M3539 (+)
358 4:16:37 Borchardt Ann Elise F3034 (+)
359 4:16:53 Johnson Max M4044 (+)
360 4:17:04 Kelly Don M5054 (+)
361 4:17:06 Burle Shawn M3539 (+)
362 4:17:23 Boone Jacob M2529 (+)
363 4:17:24 Hines Virginia F2529 (+)
364 4:17:29 Robinson Yvonne F5559 (+)
365 4:17:31 Contreras Julio M4549 (+)
366 4:17:56 Allemand Ashley F2529 (+)
367 4:18:05 Vibbert Alex M3034 (+)
368 4:18:25 Booz Elise F2529 (+)
369 4:18:43 Rossi Notburga F6064 (+)
370 4:18:55 Brooks Arthur M6064 (+)
371 4:19:07 Zeringue Launa F4549 (+)
372 4:19:12 Smith Mia F4549 (+)
373 4:19:16 Bourque Danielle F3034 (+)
374 4:19:17 Mcmillin Jennifer Lynne F3034 (+)
375 4:19:49 Williams Justin M3539 (+)
376 4:19:56 Fattmann Ken M6064 (+)
377 4:19:56 Stevens Rachel F3034 (+)
378 4:20:00 Dollar Daniel M3539 (+)
379 4:20:05 Bostick Troy M5054 (+)
380 4:20:18 Buckelew Matt M5054 (+)
381 4:20:19 Labat Khanh (USA) F3539 (+)
382 4:20:32 Givens Ethan M2529 (+)
383 4:20:34 Wittorf Matthew M4044 (+)
384 4:20:50 Spear Jefferson M5559 (+)
385 4:21:01 Martin Chequita F5559 (+)
386 4:21:12 Riddle Benjamin M3539 (+)
387 4:21:13 Crawford Andrew M2024 (+)
388 4:21:23 Aldana Carlos M4044 (+)
389 4:21:37 Martinez Michael M4549 (+)
390 4:21:38 Spoelker Jeff M4549 (+)
391 4:21:45 Ryan Gray Shelley F5559 (+)
392 4:22:08 Troxclair Courtney F2024 (+)
393 4:22:33 Rogers Christy F4549 (+)
394 4:22:37 Manders Scott M6064 (+)
395 4:22:37 Carpenter Ron M6569 (+)
396 4:22:41 Beckham Broughnman F3034 (+)
397 4:22:42 Hapgood Catherine F4044 (+)
398 4:22:44 Bland Chris M6064 (+)
399 4:22:52 Brophy Juliet F3539 (+)
400 4:22:54 Singletary Ken M4044 (+)
401 4:22:59 Plaisance Paul M4549 (+)
402 4:23:07 Ragas Brent M4044 (+)
403 4:23:12 Qaddourah Munzer M5559 (+)
404 4:23:12 Rushing Bill M5559 (+)
405 4:23:12 Vaught Jennifer F3539 (+)
406 4:23:14 Dupuis Mackenzi M2024 (+)
407 4:23:27 Simons Johnnie M5054 (+)
408 4:23:34 Carter Joel M5054 (+)
409 4:23:35 Harris Michael M4044 (+)
410 4:23:36 Moore Madison F2529 (+)
411 4:23:48 Chapman Shannon M6064 (+)
412 4:23:53 Spotswood Phillip M2529 (+)
413 4:23:58 Ehrlich Rich M6064 (+)
414 4:23:58 Blunier Jennifer F3034 (+)
415 4:24:06 Cifreo Brian M4044 (+)
416 4:24:11 Noonan Jason M5054 (+)
417 4:24:21 Schwarz Jorge M4549 (+)
418 4:24:21 Romaire John M4044 (+)
419 4:24:30 Callegan Adam M1619 (+)
420 4:24:31 Mosey Pat F5054 (+)
421 4:24:42 Godeaux Chrissy F3539 (+)
422 4:24:55 Murphy Jason M4044 (+)
423 4:25:02 Granda Megan F3034 (+)
424 4:25:09 Gozansky Wendolyn F4549 (+)
425 4:25:09 Leblanc Reynolds M3539 (+)
426 4:25:26 Ardoin Kipp M3539 (+)
427 4:25:27 Conner James M6064 (+)
428 4:25:40 Baxter Mike M6064 (+)
429 4:26:01 Derbes Joseph M4044 (+)
430 4:26:10 Moyer Zachary M3034 (+)
431 4:26:15 Thompson Scott M5559 (+)
432 4:26:21 Stahl Christine F4549 (+)
433 4:27:00 Wetekamm Kale M2529 (+)
434 4:27:02 Boudreaux Brandi F4044 (+)
435 4:27:23 Choi Helen F3539 (+)
436 4:27:28 Lonadier Jason M3034 (+)
437 4:27:28 Johnson Ryan M4044 (+)
438 4:27:47 Waguespack Anna F2529 (+)
439 4:27:50 Mcvay Benjamin M3034 (+)
440 4:27:54 Heneghan Michael M5054 (+)
441 4:28:15 Harper Donald M4549 (+)
442 4:28:38 Chaisson Damien M3034 (+)
443 4:28:47 Baudier Alysse F2529 (+)
444 4:28:48 Tenbrink Dillon M3539 (+)
445 4:28:50 Kay Jenessa F3034 (+)
446 4:28:55 Ivey Catina F4044 (+)
447 4:28:55 Batte Jacob M2529 (+)
448 4:29:02 Soileau Leboeuf Lauren F3539 (+)
449 4:29:05 Green Justin M1619 (+)
450 4:29:19 Thibodeaux Tori F2024 (+)
451 4:29:26 Perkins Anthony M4044 (+)
452 4:29:26 Simon Christina F2024 (+)
453 4:29:27 Bordelon Jason M4044 (+)
454 4:29:30 Lebouef Brian M4549 (+)
455 4:29:42 Whitaker Marvin M5054 (+)
456 4:29:47 Chapman Sterling M3034 (+)
457 4:30:01 Aponte Jean M3034 (+)
458 4:30:09 Johnson Lloyd M3034 (+)
459 4:30:11 Rowton Ashley F3034 (+)
460 4:30:13 Puyear Michael M4044 (+)
461 4:30:33 Klein Michelle F4044 (+)
462 4:31:06 Adcock Joshua M3539 (+)
463 4:31:07 Fick Jason M4044 (+)
464 4:31:10 Pittman Jeff M4044 (+)
465 4:31:17 Marks Todd M5054 (+)
466 4:31:18 Marks Kelly F1619 (+)
467 4:31:49 Lacabe-hodges Tess F4044 (+)
468 4:32:23 Wrobel Sarah F3539 (+)
469 4:32:24 Silva Kelly F5054 (+)
470 4:32:26 Luke Barry M6064 (+)
471 4:33:03 Wade Kathryn F2024 (+)
472 4:33:25 Cao Ton M4549 (+)
473 4:33:26 Leak Doug M3034 (+)
474 4:33:29 Alper Ashley F4044 (+)
475 4:33:54 Kiihnl Angie F4044 (+)
476 4:33:58 Normand David M3539 (+)
477 4:34:11 Fanguy Joey M4044 (+)
478 4:34:17 Bacarisse Chris M4549 (+)
479 4:34:19 Meyer Jeni F4549 (+)
480 4:34:26 Miller Anna F4044 (+)
481 4:34:34 Kight Jordan M2529 (+)
482 4:34:44 Green Shayne M3539 (+)
483 4:34:44 Smith Clint M4044 (+)
484 4:34:45 Larson Alexander M3539 (+)
485 4:34:46 Ulrich Kristopher M3034 (+)
486 4:34:59 Jeter Emma F4044 (+)
487 4:35:11 Mothersead Kettie F4549 (+)
488 4:35:22 Sadriyev Rebecca F3539 (+)
489 4:35:31 Schloegel Peggy F4549 (+)
490 4:35:33 Green Katie F2529 (+)
491 4:35:39 Weldon Patrick M4549 (+)
492 4:35:42 Hahn Stephanie F4044 (+)
493 4:35:48 Lee Jesse M2529 (+)
494 4:35:57 Wright Klara F4549 (+)
495 4:36:02 Yoder Aaron M3539 (+)
496 4:36:02 Lee Esther F3034 (+)
497 4:36:06 Fawehinmi Toyin M5054 (+)
498 4:36:08 Manuel Emilie F3034 (+)
499 4:36:11 Rhodes Michael M5559 (+)
500 4:36:15 Swanson Rachael F3034 (+)
501 4:36:48 White Faber M6569 (+)
502 4:36:49 Paradee Abbie F3539 (+)
503 4:37:01 Williams Thomas M5054 (+)
504 4:37:01 Razka Casey F2529 (+)
505 4:37:06 Charlet Jordan M4044 (+)
506 4:37:07 Colligan Buddy F15UN (+)
507 4:37:07 Goudeau Jeff M4044 (+)
508 4:37:30 Gladstone Claire F4549 (+)
509 4:37:31 Franklin Mikie F3539 (+)
510 4:37:33 Duffy Thomas M3539 (+)
511 4:37:54 Sisson Kevin M4549 (+)
512 4:38:12 Fitzsullivan Elizabeth F3539 (+)
513 4:38:14 Boudreaux Catherine F3034 (+)
514 4:38:26 Pecot Tiffiney F4044 (+)
515 4:38:38 Gutierrez Veronica F3539 (+)
516 4:38:44 Gunn William M4044 (+)
517 4:39:00 Kleinpeter Scott M4549 (+)
518 4:39:02 Thompson Jeremy M3539 (+)
519 4:39:15 Nowell Michael M4549 (+)
520 4:39:22 Thomas Todd M4549 (+)
521 4:39:24 Dudzik Whitney F3034 (+)
522 4:39:38 Lam Anky F6569 (+)
523 4:39:48 Abarca David M3539 (+)
524 4:39:52 Seher Sabrina F3539 (+)
525 4:39:55 Lin Amy F4044 (+)
526 4:40:02 Lam Ricky M6569 (+)
527 4:40:09 Shockley Aprill F4044 (+)
528 4:40:15 Dupin Jesse M3034 (+)
529 4:40:19 Woodman Rachel F3034 (+)
530 4:40:20 Heckert Jackson F15UN (+)
531 4:40:21 Rafish Kathleen F5559 (+)
532 4:40:21 Victoriano Beth F3539 (+)
533 4:40:21 Gilcrease Leanne F5559 (+)
534 4:40:44 Kahn Jeannine F4549 (+)
535 4:41:06 Massett Kenneth M6064 (+)
536 4:41:12 Walters Misty F4044 (+)
537 4:41:17 Rosati Andrew M2529 (+)
538 4:41:17 Barton Jacob M3539 (+)
539 4:41:18 Sommer Jesse M3034 (+)
540 4:41:18 Babin Larry M4549 (+)
541 4:41:20 Francioni Samantha F2529 (+)
542 4:41:24 Taku George M4044 (+)
543 4:41:25 Mcbride June F3539 (+)
544 4:41:25 Mcbride Rich M3539 (+)
545 4:41:40 Hamel Dominique F5054 (+)
546 4:42:03 Trippe Ann F3034 (+)
547 4:42:13 Beacham Hollis M3034 (+)
548 4:42:33 Davis Elaine F6064 (+)
549 4:42:42 Bright Brenda F5559 (+)
550 4:42:48 Grant Randy M5054 (+)
551 4:42:53 Siebe Angela F4549 (+)
552 4:43:16 Quick Cathi F5054 (+)
553 4:43:16 Frith Greg M4044 (+)
554 4:43:17 Arceneaux Mark M5559 (+)
555 4:43:25 Benson Scott M3539 (+)
556 4:43:25 Yarke Alexandra F4549 (+)
557 4:43:38 Hines Danielle F3034 (+)
558 4:43:55 Guillory Clayton M2024 (+)
559 4:44:03 Landry Jason M4044 (+)
560 4:44:51 Manson G Briggs M4549 (+)
561 4:45:28 Phan Shawn M4044 (+)
562 4:45:34 Hedges Amanda F2529 (+)
563 4:45:35 Patel Tatiana F3539 (+)
564 4:45:52 Clark Vanessa F4549 (+)
565 4:45:54 Clark William M4044 (+)
566 4:45:55 Robicheaux Stephen M5559 (+)
567 4:46:11 Grevey Bill M6569 (+)
568 4:46:20 Gaston Lori F4044 (+)
569 4:46:25 Dufren Keith M5054 (+)
570 4:46:44 Adcock Daurie F4549 (+)
571 4:46:45 Schafer Jessica F2024 (+)
572 4:47:11 Torres Ricardo M2529 (+)
573 4:47:11 Digiulio Elijah F15UN (+)
574 4:47:14 Gravelle Diane F5054 (+)
575 4:47:53 Lacassin Ronnie M4044 (+)
576 4:47:58 Tanaka Osamu M4549 (+)
577 4:48:14 Cadwallader Scott M3539 (+)
578 4:48:28 Taylor Jacob M3539 (+)
579 4:48:39 Romero Jake M3539 (+)
580 4:48:41 Everson Jason M3539 (+)
581 4:48:52 Cao Rongji M4044 (+)
582 4:49:01 Langlois Melinda F5559 (+)
583 4:49:23 Watts Rhonda F5054 (+)
584 4:49:38 Bradshaw Kathy F4044 (+)
585 4:50:05 Sullivan Katrina F2529 (+)
586 4:50:14 Mendoza Elizabeth F3034 (+)
587 4:50:14 Kurti Jess F4549 (+)
588 4:50:28 Leese Gretchen F4044 (+)
589 4:50:32 Rhode Jr. Cyrus M7074 (+)
590 4:50:46 Smith Darlene F3539 (+)
591 4:50:55 Hughes Thomas M4044 (+)
592 4:50:56 Biggs Roger M6569 (+)
593 4:51:25 Cobb Robin F3034 (+)
594 4:51:37 Rossi Lynette F5054 (+)
595 4:51:40 Strenth Grant M2529 (+)
596 4:51:48 Lackett Kelli F4549 (+)
597 4:51:58 Mattox Heather F3034 (+)
598 4:52:29 Bland Kevin M2529 (+)
599 4:52:38 Shatford Claire F2024 (+)
600 4:52:40 Rothwell Keli F4044 (+)
601 4:52:59 Diego Nathaniel M3034 (+)
602 4:53:11 Junkin Vanessa F2529 (+)
603 4:53:14 St. Pierre Courtney F2024 (+)
604 4:53:29 Eglin Richard M5054 (+)
605 4:53:30 Rockwell Mark M3034 (+)
606 4:53:47 Thomas Dean M5054 (+)
607 4:54:14 Ray Leonard M1619 (+)
608 4:54:29 Fears Brandon M3539 (+)
609 4:54:30 Rhoden Marla F6064 (+)
610 4:55:06 Naquin Jacob M1619 (+)
611 4:55:06 Clark Lyle M4549 (+)
612 4:55:07 Emerson Brittany F3034 (+)
613 4:55:14 Watson Craig M5559 (+)
614 4:55:17 Freeman Christopher M5054 (+)
615 4:55:35 Elberson Margaret F4044 (+)
616 4:55:36 Jones Dawn F4044 (+)
617 4:55:46 Weger John M5559 (+)
618 4:55:52 Dwyer Ryan M3034 (+)
619 4:56:01 Morales Cerinda F3539 (+)
620 4:56:03 Upton Bennett M4044 (+)
621 4:56:04 Berry Thomas M4044 (+)
622 4:56:08 Davis William M4549 (+)
623 4:56:21 Clement Stephen M4044 (+)
624 4:56:32 Macias Laura F3034 (+)
625 4:56:34 Thomas Allain F4044 (+)
626 4:57:02 Berry Amber F3539 (+)
627 4:57:18 Stephens Robin Rene F4549 (+)
628 4:57:22 Buckley Catherine F2529 (+)
629 4:57:24 Lafikes James M2529 (+)
630 4:57:30 April Chrissy F4044 (+)
631 4:57:38 Borders Sean M4044 (+)
632 4:57:41 Beech Kristi F4044 (+)
633 4:58:00 Follis George M5559 (+)
634 4:58:22 Gros Natalie F3539 (+)
635 4:58:22 Gros Nicholas M3539 (+)
636 4:58:23 Burress Greg M4549 (+)
637 4:58:27 Herrington Jason M4044 (+)
638 4:58:28 Good Joel M3034 (+)
639 4:58:31 Smith Aaron M3034 (+)
640 4:58:34 Stansbury Casey M4044 (+)
641 4:58:43 Roberts Michelle F3539 (+)
642 4:58:55 Davis Charla F3034 (+)
643 4:59:00 Crochet Gerald M3539 (+)
644 4:59:04 Kent Kelli F4044 (+)
645 4:59:29 Jones Audra F2529 (+)
646 4:59:47 Schneider James M3034 (+)
647 5:00:14 Marcel Lauren F3034 (+)
648 5:00:18 Michelson Catherine F3539 (+)
649 5:00:19 Bamburg Taylor F2529 (+)
650 5:00:53 Baker Buddy M6064 (+)
651 5:00:57 Moore Tanya F4044 (+)
652 5:00:58 Moore Peter M4549 (+)
653 5:01:26 Kendrick Mike M7074 (+)
654 5:01:39 Holmes Rich M6569 (+)
655 5:01:42 Nguyen Dien Van M4044 (+)
656 5:01:47 Boudreaux Jessica F3034 (+)
657 5:02:12 Perez Ruth F5559 (+)
658 5:02:21 Philipp Doug M5054 (+)
659 5:02:41 Jiang Jing M4044 (+)
660 5:03:17 Huddleston Amber F3034 (+)
661 5:03:21 Corona Monica F3034 (+)
662 5:03:56 Blount Mark M5559 (+)
663 5:03:56 Gearig-howe Chad M3539 (+)
664 5:04:10 Shotkoski Dale M5559 (+)
665 5:04:29 Woodward Leslie F5559 (+)
666 5:05:06 Alexander Carrie F3539 (+)
667 5:05:08 Brandt Gannon M2529 (+)
668 5:05:09 Peters Jarrett M3034 (+)
669 5:05:35 Partin Susan F3034 (+)
670 5:05:37 Hamilton Beth F3034 (+)
671 5:06:01 Chanler Kelli F3034 (+)
672 5:06:05 Mineo Craig M5054 (+)
673 5:06:06 Mineo Megan F2024 (+)
674 5:06:13 Langan Marty M6064 (+)
675 5:06:20 Jimenez Sara F3539 (+)
676 5:06:20 Sucato Carissa F4044 (+)
677 5:06:33 Atchison Daryl M4549 (+)
678 5:06:53 Marks Emily F2024 (+)
679 5:07:08 Walker Tracey F5054 (+)
680 5:07:12 Phillips Blake M3034 (+)
681 5:07:15 Sorgenfrei Darren M4549 (+)
682 5:07:23 Procak George M5054 (+)
683 5:07:35 Calamia Robin F5054 (+)
684 5:08:02 Thacker Tanil F4044 (+)
685 5:08:04 Hampton Brandy F3539 (+)
686 5:08:08 White Katie F4549 (+)
687 5:08:09 White Keith M5559 (+)
688 5:08:26 Humphries Molly F2024 (+)
689 5:08:27 Long Jim M7074 (+)
690 5:08:55 Zywicke Gwendolyn F5054 (+)
691 5:08:59 Christian Mary F3539 (+)
692 5:09:03 Shearn Taylor F3034 (+)
693 5:09:03 Iacoboni Michelle F3034 (+)
694 5:09:17 Wilson Zelia F4044 (+)
695 5:09:34 Macias James M3539 (+)
696 5:09:37 Martin-morris Kyle M2529 (+)
697 5:09:52 Comeaux Ellen F3539 (+)
698 5:09:52 Olson Brian M5054 (+)
699 5:10:15 Evans Cassie F5054 (+)
700 5:10:19 Wildeboer Steve M6569 (+)
701 5:11:15 Barnaby Paul M6064 (+)
702 5:11:23 Paris John M5054 (+)
703 5:11:26 Dees Chad M3539 (+)
704 5:11:29 Rupe Annina F3034 (+)
705 5:11:45 Martin Ashley F4044 (+)
706 5:11:50 Thompson Erik M4549 (+)
707 5:11:52 Bergeron Jr Ronald M4549 (+)
708 5:11:53 Brunet Brian M4044 (+)
709 5:12:25 Gordon Brianna F3034 (+)
710 5:12:52 Arasta Amir M4549 (+)
711 5:13:07 Lawrence Ronald M6569 (+)
712 5:13:09 Bryant Ashley F3034 (+)
713 5:13:19 Regenold Betty F5054 (+)
714 5:13:22 Kage Dan M5559 (+)
715 5:13:36 Anders Clifton M6064 (+)
716 5:13:40 Vu Theresa F6064 (+)
717 5:15:31 Rankin Jim M6569 (+)
718 5:16:18 Yemane Dawit M4044 (+)
719 5:16:42 Socol Carey F4044 (+)
720 5:16:49 Rice Ryan M3034 (+)
721 5:18:08 Dyson Gary M4044 (+)
722 5:18:37 Bradley William M5054 (+)
723 5:18:37 Jolivette Marcela F3539 (+)
724 5:18:44 Kunkle Ginger F3034 (+)
725 5:19:46 Torres Julie F4044 (+)
726 5:19:46 Rosinia Mary F4549 (+)
727 5:20:36 Fontenot Brian M3539 (+)
728 5:20:40 Seghers David M4044 (+)
729 5:20:51 Cotuna Sandra F3539 (+)
730 5:21:02 Lueg Tiffany F4044 (+)
731 5:21:10 Hernandez Ariel M2024 (+)
732 5:21:18 Blanchard Traci F4044 (+)
733 5:21:35 Cross Victor M5559 (+)
734 5:21:46 Koenig Matthew M4044 (+)
735 5:21:53 Mckenzie Roger M6569 (+)
736 5:22:19 Weeks Jeff M4549 (+)
737 5:22:31 Smith Elaina F2529 (+)
738 5:22:39 Payton Katie F3034 (+)
739 5:22:41 Butterfield Karrie F5054 (+)
740 5:22:42 Chauvin Justin M3034 (+)
741 5:22:46 Seeber Douglas M6064 (+)
742 5:22:54 Bounds Mark M5054 (+)
743 5:23:26 Weeks Camille F5559 (+)
744 5:23:40 Fontenot Nicole F4044 (+)
745 5:24:09 Miller Arisa F3034 (+)
746 5:24:58 Kelley John M3034 (+)
747 5:24:59 Davis Amanda F3539 (+)
748 5:24:59 Simonson Mindy F3539 (+)
749 5:24:59 Butts-hall Jayme F3539 (+)
750 5:25:06 Lepkowski Joe M5559 (+)
751 5:25:15 Winget Tiffany F2529 (+)
752 5:25:27 Wearda Bruce M4549 (+)
753 5:25:35 Mcfarland Sasha F3539 (+)
754 5:25:44 Douglas Shay F3539 (+)
755 5:25:56 Larson Kathy F5559 (+)
756 5:26:24 Maples Natalie F3034 (+)
757 5:27:00 Hughes Anna F1619 (+)
758 5:27:03 Mondello Joseph M7074 (+)
759 5:27:19 Whisnant Sandra F5054 (+)
760 5:27:30 Anderson Jennifer F4044 (+)
761 5:27:31 Marks Angie F5054 (+)
762 5:27:34 Spann David M4549 (+)
763 5:28:03 Holcomb Evan M3034 (+)
764 5:28:08 Miller Nora F5559 (+)
765 5:28:11 Smith Julie F4549 (+)
766 5:28:16 Taylor Jenna F4044 (+)
767 5:28:19 Bonnette Mary F5559 (+)
768 5:28:25 Manriquez Robert M4044 (+)
769 5:28:49 Daly James M5054 (+)
770 5:28:53 Pena Luisa F6064 (+)
771 5:29:06 Mulholland Daniel M5559 (+)
772 5:29:16 Waldrup Breanna F3034 (+)
773 5:29:19 Olsen Andrew M3034 (+)
774 5:29:45 West Heather F3034 (+)
775 5:31:33 Hooks Thomas M3034 (+)
776 5:31:40 Nitschke Andrea F5054 (+)
777 5:31:48 Bonis Blaine M2024 (+)
778 5:31:55 Borden Sally F4044 (+)
779 5:31:55 Borden John M4549 (+)
780 5:32:03 Fabre Jason M4044 (+)
781 5:32:13 Elbert Charles M3539 (+)
782 5:32:18 Mckibbin Kristy F6064 (+)
783 5:32:18 Burkey Kathy F6064 (+)
784 5:32:47 Mccully Jere M5559 (+)
785 5:32:52 Dubey Stuti F3034 (+)
786 5:32:53 Berger Sharon F5054 (+)
787 5:33:26 Everman Tyrone M4549 (+)
788 5:33:27 Sellers Tracy F4044 (+)
789 5:34:38 Grano Sarah F3034 (+)
790 5:35:46 Howe Mark M6569 (+)
791 5:35:46 Durand Pat F6064 (+)
792 5:35:59 Eglin Tracy F5559 (+)
793 5:36:08 Thorson Susan F7074 (+)
794 5:36:33 Smith Bryant M3539 (+)
795 5:37:04 Fernandez Shelly F4044 (+)
796 5:37:04 Martin Tessi F2529 (+)
797 5:37:57 Folkerts Byron M6064 (+)
798 5:38:01 Douget Angela F4549 (+)
799 5:38:04 Brouillette Craig M5559 (+)
800 5:38:14 Hender Catherine F5054 (+)
801 5:38:46 Davis Angie F3034 (+)
802 5:38:49 Bourgeois Brad M3539 (+)
803 5:38:51 Corbello Stacey F4044 (+)
804 5:38:56 Hughes Charla F3034 (+)
805 5:39:14 Fenske Mike M4549 (+)
806 5:40:09 Williams Sarah F4044 (+)
807 5:40:10 Andrepont Mickie F5054 (+)
808 5:40:12 Lewis John Paul M5054 (+)
809 5:40:41 Watts Matthew M6064 (+)
810 5:41:02 Houck Cielena F4044 (+)
811 5:41:27 Desoto Heather F2529 (+)
812 5:41:43 Long Eathan M1619 (+)
813 5:41:44 Long Anthony M4044 (+)
814 5:42:00 Smith James M2529 (+)
815 5:42:02 Allen Cassey F3034 (+)
816 5:42:21 Millican Terry F5559 (+)
817 5:43:22 Jones Lee F4044 (+)
818 5:43:22 Frazier Emily F3539 (+)
819 5:44:01 Crompton Maria F3539 (+)
820 5:45:18 Hoddle David M5054 (+)
821 5:46:07 Sullivan Stacy F3034 (+)
822 5:46:26 Suding Erica F3034 (+)
823 5:46:38 Casey Butch M6064 (+)
824 5:46:39 Wiggins Shawna F4044 (+)
825 5:46:51 Decker Jim M6569 (+)
826 5:47:02 Lebouef Trish F4044 (+)
827 5:47:18 Mccorkle Hope F4044 (+)
828 5:47:25 Knaus Kathryn F2529 (+)
829 5:47:55 Carey Brian M4044 (+)
830 5:48:07 Lee Michael M3539 (+)
831 5:48:41 Johnson Melissa F4549 (+)
832 5:49:11 To Katie F3034 (+)
833 5:49:16 Woods James M4044 (+)
834 5:49:24 Lemon Zachary M3539 (+)
835 5:50:08 Scott Allen M5054 (+)
836 5:50:27 Mcdermott Kelly F4044 (+)
837 5:50:53 Weldon Stephanie F4549 (+)
838 5:50:54 Tompkins Gary M5054 (+)
839 5:50:54 Brazil Wendi F3539 (+)
840 5:51:01 Godeaux Scott M4044 (+)
841 5:51:21 Moore Frank M4044 (+)
842 5:51:44 Romaire Nicole F4044 (+)
843 5:52:20 Loper Hannah F2529 (+)
844 5:52:21 Barnes Sandy F4549 (+)
845 5:52:52 Jordan Elizabeth F2024 (+)
846 5:53:08 Pratt Mccullagh Oriel F2024 (+)
847 5:54:11 Wallace Julie F4044 (+)
848 5:54:29 Englesberg Liora F2024 (+)
849 5:55:24 Chauvin Darryl M4044 (+)
850 5:57:09 Bernier Gabrielle F3034 (+)
851 5:57:31 Nunez Amador M5559 (+)
852 5:57:57 Spell Sharon F4044 (+)
853 5:57:58 Smith Melanie F4044 (+)
854 5:58:00 Belvin Brittney F3034 (+)
855 5:58:27 Slocum Jim M7074 (+)
856 5:59:11 Smith John M6064 (+)
857 5:59:25 Day Dan M3539 (+)
858 5:59:38 Huddleston Amber F3034 (+)
859 5:59:45 Sielski Robert M7074 (+)
860 5:59:53 Hochstetler Ashley F2529 (+)
861 6:00:03 Havard Jennifer F4549 (+)
862 6:00:03 Westmoreland Brandy F3539 (+)
863 6:00:05 Charlet Aimee F4044 (+)
864 6:00:17 Lowder Preston M2529 (+)
865 6:00:32 Perryman Jennifer F3539 (+)
866 6:00:57 Macedo Cristian M4044 (+)
867 6:01:19 Adams Cory M3539 (+)
868 6:01:49 Lecompte Kimberly F3034 (+)
869 6:02:53 Melancon Taylor F2024 (+)
870 6:03:44 Leblanc Rena F3539 (+)
871 6:04:43 Stanger Spring F3539 (+)
872 6:04:43 Greenwaldt Lisa F5559 (+)
873 6:05:45 Bankston Jason M4549 (+)
874 6:05:59 Ruiz Madelyn F2024 (+)
875 6:07:04 Ellis Sharon F6569 (+)
876 6:07:17 Hurt Georgia F3034 (+)
877 6:07:20 White Megan F2529 (+)
878 6:07:54 Hoppe Evan M3034 (+)
879 6:08:21 Tissot Aaron M3539 (+)
880 6:08:29 Beery Gage M2024 (+)
881 6:08:31 Stovall Litanya F5054 (+)
882 6:08:32 Hazlewood Lindsey F3034 (+)
883 6:09:36 Callahan Lynette F5054 (+)
884 6:11:16 Cieslak Suzanne F6569 (+)
885 6:11:19 Cieslak Michael M6569 (+)
886 6:11:39 Hardacre Wesley M3539 (+)
887 6:11:48 Cross John M5054 (+)
888 6:11:49 Theall Cathy F5054 (+)
889 6:12:10 Cicero Yvonne F5054 (+)
890 6:12:14 Raghavan Dasarathy M4549 (+)
891 6:12:17 Knowles Tara F4044 (+)
892 6:12:21 Lindbergh Karah F3539 (+)
893 6:15:10 Gonzales Stacey F4549 (+)
894 6:15:34 Hennigan Wayne M2024 (+)
895 6:16:50 Ivey T.j. M4044 (+)
896 6:17:41 Marshall Jennifer F4044 (+)
897 6:18:25 Netterville Vicky F5559 (+)
898 6:18:27 Peneguy Jeanne F3539 (+)
899 6:18:58 Gilman Karen F5559 (+)
900 6:19:32 Garcia Ivonne F2529 (+)
901 6:20:25 Huddleston Celeste F3539 (+)
902 6:20:26 Nash Jessica F3539 (+)
903 6:20:47 Donnelly Bill M6569 (+)
904 6:21:43 Johnson Michelle F3539 (+)
905 6:22:41 Carroll Tim M4549 (+)
906 6:23:20 Shank Clyde M6569 (+)
907 6:23:34 Mayeux Josh M2529 (+)
908 6:25:05 Carpenter Shelly F4044 (+)
909 6:25:18 Deakyne Kathy F6064 (+)
910 6:25:57 Roberts Michelle F4549 (+)
911 6:26:09 Davis Kimberly F2529 (+)
912 6:26:09 Branzaru Elena F4549 (+)
913 6:26:29 Russell Amy F3034 (+)
914 6:26:33 Guidry Jordan M2529 (+)
915 6:26:34 Crawford Aaron M2529 (+)
916 6:26:35 Giles Roosevelt M5559 (+)
917 6:26:47 Utzinger Kenneth M6569 (+)
918 6:27:00 Chesson Clemence F6064 (+)
919 6:27:15 Bodine Michael M4044 (+)
920 6:27:53 Hlavacek Corey M3034 (+)
921 6:29:33 Thomas Latesha F3539 (+)
922 6:29:35 Savoie Angelle F4044 (+)
923 6:30:25 Thompson Willie M6569 (+)
924 6:31:58 Mcdermott Ashley F3539 (+)
925 6:33:25 Campisi David M4549 (+)
926 6:33:30 Guillot Lauren F2529 (+)
927 6:34:06 Goodrich Robyn F5559 (+)
928 6:34:11 David Tim M3034 (+)
929 6:34:47 Hines Nicholas M2024 (+)
930 6:35:08 Beale Jennifer F4044 (+)
931 6:35:09 Ellington Jessica F3539 (+)
932 6:35:09 Beale Breanna F2024 (+)
933 6:37:31 Leblanc Gerald M5559 (+)
934 6:38:26 Tucker Madeline F2529 (+)
935 6:40:10 Scully Stuart M3539 (+)
936 6:41:10 Massarotti Brandy F4549 (+)
937 6:41:30 Moberly Thomas M5054 (+)
938 6:42:29 Spillers Julie F3034 (+)
939 6:42:30 Spillers Jason M4044 (+)
940 6:42:45 Taylor David M6064 (+)
941 6:43:03 Harlan Paul M4549 (+)
942 6:43:23 Willis Matthew M4044 (+)
943 6:43:33 Rascoe Patrick M4044 (+)
944 6:50:17 Willis Chandler M6064 (+)
945 6:50:56 Urquhart Dee Dee F5559 (+)
946 6:51:03 Macon Laurence M7074 (+)
947 6:52:19 Hochstetler Meghan F3539 (+)
948 6:55:15 Grubbs Nathan M3034 (+)
949 6:55:16 Grubbs Courtney F2529 (+)